Rome, GA

2:10 AM EST on November 19, 2017 (GMT -0500)
Russell

Weather History for KRMG - May, 2014

Change the Weather History Date:

Thursday, May 15, 2014

  Actual Average Record
Temperature  
Mean Temperature 57 °F 68 °F  
Max Temperature 65 °F 81 °F 91 °F (2001)
Min Temperature 49 °F 55 °F 45 °F (2002)
Degree Days  
Heating Degree Days 7    
Cooling Degree Days 0 4  
Month to date cooling degree days 66 40  
Year to date cooling degree days 88 73  
Growing Degree Days 8 (Base 50)    
Moisture  
Dew Point 56 °F    
Average Humidity 78    
Maximum Humidity 100    
Minimum Humidity 56    
Precipitation  
Precipitation 0.10 in 0.15 in 1.08 in (2008)
Month to date precipitation 1.86 2.18  
Year to date precipitation 21.01 20.87  
Sea Level Pressure  
Sea Level Pressure 29.97 in    
Wind  
Wind Speed 6 mph (West)    
Max Wind Speed 18 mph    
Max Gust Speed 26 mph    
Visibility 8 miles    
Events Rain    
T = Trace of Precipitation, MM = Missing Value Source: NWS Daily Summary

Daily Weather History Graph

Daily Weather History Graph

Search for Another Location

Airport or City:

Trip Planner

Search our weather history database for the weather conditions in past years. The results will help you decide how hot, cold, wet, or windy it might be!

Date:

Astronomy

May. 15, 2014 Rise Set
Actual Time 6:38 AM EDT 8:35 PM EDT
Civil Twilight 6:10 AM EDT 9:03 PM EDT
Nautical Twilight 5:36 AM EDT 9:37 PM EDT
Astronomical Twilight 5:00 AM EDT 10:13 PM EDT
Moon 9:43 PM EDT (5/15) 7:24 AM EDT (5/15)
Length of Visible Light 14h 53m
Length of Day
13h 57m
Full, 99% of the Moon is Illuminated
May 15
Full
May 21
Last Quarter
May 28
New
Jun 5
First Quarter
Jun 13
Full

Hourly Weather History & Observations

Time (EDT) Temp. Dew Point Humidity Pressure Visibility Wind Dir Wind Speed Gust Speed Precip Events Conditions
12:53 AM 64.9 °F 64.9 °F 100% 29.90 in 8.0 mi Calm Calm - 0.05 in Rain Light Rain
1:53 AM 64.9 °F 64.0 °F 97% 29.89 in 10.0 mi Calm Calm - 0.00 in   Scattered Clouds
2:18 AM 64.9 °F 64.9 °F 100% 29.90 in 10.0 mi Calm Calm - N/A   Mostly Cloudy
2:53 AM 64.9 °F 64.9 °F 100% 29.88 in 10.0 mi SSE 4.6 mph - N/A   Overcast
3:05 AM 64.9 °F 64.9 °F 100% 29.90 in 10.0 mi SE 5.8 mph - N/A   Overcast
3:20 AM 64.9 °F 64.9 °F 100% 29.90 in 10.0 mi SSE 6.9 mph - N/A   Overcast
3:35 AM 64.9 °F 64.9 °F 100% 29.91 in 10.0 mi SSE 5.8 mph - N/A   Overcast
3:50 AM 64.4 °F 64.4 °F 100% 29.90 in 3.0 mi SSW 4.6 mph - 0.01 in Rain Light Rain
3:53 AM 64.9 °F 64.9 °F 100% 29.88 in 2.5 mi WSW 5.8 mph - 0.01 in Rain Light Rain
4:02 AM 64.9 °F 64.0 °F 97% 29.90 in 2.5 mi SSW 3.5 mph - 0.03 in Rain Light Rain
4:07 AM 64.9 °F 64.0 °F 97% 29.90 in 3.0 mi Variable 4.6 mph - 0.03 in Rain Light Rain
4:18 AM 64.0 °F 64.0 °F 100% 29.90 in 5.0 mi SSW 4.6 mph - 0.04 in Rain Light Rain
4:29 AM 63.0 °F 63.0 °F 100% 29.90 in 2.5 mi WNW 6.9 mph - 0.05 in Rain Light Rain
4:36 AM 63.0 °F 62.1 °F 97% 29.90 in 3.0 mi West 6.9 mph - 0.05 in Rain Light Rain
4:53 AM 62.1 °F 60.1 °F 93% 29.89 in 6.0 mi WSW 6.9 mph - 0.05 in   Overcast
5:42 AM 60.1 °F 57.9 °F 93% 29.93 in 10.0 mi West 9.2 mph - N/A   Overcast
5:53 AM 59.0 °F 57.9 °F 96% 29.91 in 10.0 mi West 8.1 mph - N/A   Overcast
6:01 AM 59.0 °F 57.2 °F 94% 29.94 in 10.0 mi West 9.2 mph - N/A   Overcast
6:51 AM 57.2 °F 55.4 °F 94% 29.95 in 10.0 mi West 6.9 mph - N/A   Overcast
6:53 AM 57.0 °F 55.9 °F 96% 29.94 in 10.0 mi West 6.9 mph - N/A   Overcast
7:53 AM 55.9 °F 54.0 °F 93% 29.97 in 5.0 mi West 6.9 mph - 0.02 in Rain Light Rain
8:20 AM 55.0 °F 53.1 °F 93% 29.99 in 10.0 mi WSW 8.1 mph - 0.02 in   Overcast
8:37 AM 55.0 °F 53.1 °F 93% 29.99 in 10.0 mi Variable 5.8 mph - 0.02 in Rain Light Rain
8:53 AM 55.0 °F 54.0 °F 96% 29.99 in 10.0 mi Variable 4.6 mph - 0.02 in   Overcast
9:53 AM 55.9 °F 54.0 °F 93% 30.00 in 10.0 mi WNW 4.6 mph - N/A   Overcast
10:35 AM 57.0 °F 53.1 °F 87% 30.03 in 10.0 mi NNW 9.2 mph - N/A   Overcast
10:44 AM 57.0 °F 52.0 °F 83% 30.03 in 10.0 mi WNW 8.1 mph - N/A   Overcast
10:53 AM 57.0 °F 52.0 °F 83% 30.02 in 10.0 mi NW 9.2 mph - N/A   Overcast
11:53 AM 57.0 °F 51.1 °F 81% 30.03 in 10.0 mi Variable 6.9 mph - N/A   Overcast
12:53 PM 60.1 °F 48.9 °F 67% 30.04 in 10.0 mi NW 10.4 mph 17.3 mph N/A   Overcast
1:53 PM 61.0 °F 51.1 °F 70% 30.03 in 10.0 mi North 8.1 mph - N/A   Mostly Cloudy
3:53 PM 63.0 °F 48.0 °F 58% 30.01 in 10.0 mi NNW 10.4 mph - N/A   Overcast
4:53 PM 62.1 °F 46.9 °F 58% 30.01 in 10.0 mi NW 9.2 mph 18.4 mph N/A   Overcast
5:53 PM 61.0 °F 46.0 °F 58% 30.02 in 10.0 mi NW 9.2 mph - N/A   Overcast
6:53 PM 62.1 °F 46.9 °F 58% 30.02 in 10.0 mi NW 9.2 mph - N/A   Scattered Clouds
7:53 PM 61.0 °F 48.0 °F 62% 30.02 in 10.0 mi NNW 4.6 mph - N/A   Clear
8:53 PM 55.0 °F 48.9 °F 80% 30.03 in 10.0 mi WNW 3.5 mph - N/A   Clear
9:53 PM 53.1 °F 46.9 °F 80% 30.06 in 10.0 mi WNW 4.6 mph - N/A   Clear
10:53 PM 52.0 °F 46.0 °F 80% 30.09 in 10.0 mi NNW 5.8 mph - N/A   Clear
11:53 PM 50.0 °F 46.9 °F 89% 30.10 in 10.0 mi Calm Calm - N/A   Clear